Location: Asheville, NC
(35.6000°N, 82.5500°W)
Time: 08:48:07
(UTC-05:00)

Vanguard 1 Rocket - Pass Details

Date: 09 February 2018
Orbit: 655 x 4222 km, 34.3° (Epoch: 19 February)

Event Time Altitude Azimuth Distance (km) Brightness Sun altitude
Rises 21:52:05 0° 187° (S) 6,919 11.8 -46.0°
Reaches altitude 10° 21:58:06 10° 173° (S) 6,424 11.5 -47.2°
Enters shadow 21:58:40 11° 172° (S) 6,389 11.4 -47.3°
